Aeroporto :
LOGIN :

Iscrizione | Disclaimer

   EN    FR    IT 

 










Sommario :    VFR   VFR Marginale   IFR   IFR Intensivo   IFR Molto Intensivo
Visibilità : 
Base nubi : 
>= 8 km
>= 3000ft
5 / 8 km
1000 / 3000 ft
1500m / 5 km
500 / 1000 ft
800 / 1500m
200 / 500 ft
< 800m
< 200 ft
Simboli :   Temporali  Nebbia  Neve Forte  Precipitazioni Forti  Vento > 20 kt
SIGMETs :   Varie  Temporali  Ghiacco  Turbolenza  Onda orograficha  Ceneri Vulcaniche






- Altitudine del aeroporto : 286 ft
- Codice IATA : FFD


EGVA - RAF Fairford

ULTIMO METAR :
  • 150656Z AUTO 35011KT 9999 OVC009 05/04 A2968 RMK AO2 CIG 008 RWY09 SLP057 T00480036 $

METARs OBSOLETI :
  • 150606Z AUTO 01008KT 9999 BKN010 BKN060 05/03 A2968 RMK AO2 CIG 010V041 BKN010 V SCT SLP057 $
  • 150511Z AUTO 01008KT 9999 SCT010 OVC039 05/04 A2968 RMK AO2 SLP057 $
  • 150501Z AUTO 01008KT 9999 BKN010 BKN014 OVC038 05/04 A2968 RMK AO2 SLP057 $

Previsioni scadute.



MetMap, La meteo Aeronautica in un colpo d'occhio ! - Copyright ORBIFLY Dicembre 2007 - Disclaimer

ORBIFLY MET'MAP TEAM :

Programmazione e sviluppo : Alexandra Zaïnal
Concezione e sviluppo : Baudouin d'Aumeries
Co-Programmazione e sviluppo : Marc-Olivier Méhu
Supporto tecnico e logistico : Manuel Goepfert
Aiuto per la traduzione : Arnaldo La Scala

Contatto : metmap@orbifly.com




FONTI E CREDITI :

   NOAA